TimeMDT,TemperatureF,Dew PointF,Humidity,Sea Level PressureIn,VisibilityMPH,Wind Direction,Wind SpeedMPH,Gust SpeedMPH,PrecipitationIn,Events,Conditions,WindDirDegrees,DateUTC
12:53 AM,48.9,46.9,93,30.04,10.0,Calm,Calm,-,N/A,,Partly Cloudy,0,2013-06-12 06:53:00
1:53 AM,46.9,45.0,93,30.04,10.0,SW,3.5,-,N/A,,Clear,230,2013-06-12 07:53:00
2:53 AM,45.0,44.1,97,30.05,10.0,SSW,6.9,-,N/A,,Clear,200,2013-06-12 08:53:00
3:53 AM,46.0,45.0,96,30.04,10.0,SW,4.6,-,N/A,,Clear,220,2013-06-12 09:53:00
4:53 AM,45.0,43.0,93,30.03,10.0,Calm,Calm,-,N/A,,Partly Cloudy,0,2013-06-12 10:53:00
5:28 AM,42.8,42.8,100,30.02,2.0,NNE,3.5,-,N/A,,Clear,20,2013-06-12 11:28:00
5:35 AM,42.8,41.0,93,30.02,10.0,Calm,Calm,-,N/A,,Clear,0,2013-06-12 11:35:00
5:53 AM,42.1,41.0,96,30.01,10.0,Calm,Calm,-,N/A,,Clear,0,2013-06-12 11:53:00
6:53 AM,50.0,48.0,93,30.01,10.0,Calm,Calm,-,N/A,,Clear,0,2013-06-12 12:53:00
11:33 AM,64.4,51.8,64,29.97,10.0,ESE,4.6,-,N/A,,Scattered Clouds,110,2013-06-12 17:33:00
11:53 AM,68.0,52.0,56,29.97,10.0,NE,4.6,-,N/A,,Partly Cloudy,50,2013-06-12 17:53:00
12:53 PM,71.1,53.1,53,29.95,10.0,ENE,6.9,-,N/A,,Clear,60,2013-06-12 18:53:00
1:53 PM,71.1,52.0,51,29.93,10.0,Variable,5.8,-,N/A,,Partly Cloudy,0,2013-06-12 19:53:00
2:53 PM,72.0,53.1,51,29.91,10.0,East,5.8,-,N/A,,Clear,80,2013-06-12 20:53:00
3:53 PM,69.1,53.1,57,29.89,10.0,NNE,8.1,-,N/A,,Scattered Clouds,20,2013-06-12 21:53:00
4:53 PM,63.0,57.9,84,29.89,4.0,West,6.9,-,0.05,Rain,Light Rain,260,2013-06-12 22:53:00
5:53 PM,64.0,59.0,84,29.89,10.0,North,11.5,-,0.01,Rain,Light Rain,350,2013-06-12 23:53:00
6:53 PM,64.0,59.0,84,29.92,10.0,South,6.9,-,0.00,,Overcast,180,2013-06-13 00:53:00
7:53 PM,66.0,59.0,78,29.91,10.0,WNW,9.2,-,N/A,,Scattered Clouds,300,2013-06-13 01:53:00
8:53 PM,63.0,57.9,84,29.93,10.0,North,8.1,-,N/A,,Overcast,350,2013-06-13 02:53:00
9:53 PM,59.0,55.9,90,29.96,9.0,North,6.9,-,0.04,Rain,Light Rain,360,2013-06-13 03:53:00
10:35 PM,57.2,57.2,100,29.98,2.5,NNE,4.6,-,0.09,Rain,Rain,20,2013-06-13 04:35:00
10:48 PM,57.2,57.2,100,29.96,6.0,NE,6.9,-,0.12,Rain,Light Rain,40,2013-06-13 04:48:00
10:53 PM,57.9,55.9,93,29.96,9.0,NE,5.8,-,0.12,Rain-Thunderstorm,Light Thunderstorms and Rain,50,2013-06-13 04:53:00
11:32 PM,57.2,55.4,94,29.96,10.0,SE,5.8,-,0.03,,Overcast,140,2013-06-13 05:32:00
11:53 PM,57.9,55.0,90,29.90,10.0,East,5.8,-,0.03,,Mostly Cloudy,90,2013-06-13 05:53:00